Station Historical Data
Daily Summary for January 17, 2017 Units:  Metric    English   Both
« Previous Day
Next Day »
Daily Weekly Monthly Yearly Custom
  High: Low: Average:
Temperature: 7.6 °C 0.2 °C 3.9 °C
Dew Point: 6.8 °C -2.6 °C 2.7 °C
Humidity: 96% 81% 92%
Wind Speed: 20.9km/h 0km/h 5.1km/h
Wind Gust: 32.2km/h - -
Wind- - SE
Pressure: 1024.3 hPa 1008 hPa -
Precipitation: 0 mm    
Historical Graphs
 
 
Tabular Data for January 17, 2017
Time Temperature Dew Point Pressure Wind Wind Speed Wind Gust Humidity Rainfall Rate (Hourly)
00:04 0.6 °C -2.2 °C 1024.3 hPa Calm     82% 0 mm
00:09 0.4 °C -2.3 °C 1023.9 hPa Calm     82% 0 mm
00:14 0.4 °C -2.3 °C 1023.6 hPa East 3.2 km/h 3.2 km/h 82% 0 mm
00:19 0.4 °C -2.2 °C 1023.6 hPa East 1.6 km/h 4.8 km/h 83% 0.25 mm
00:24 0.4 °C -2.3 °C 1023.6 hPa ENE 3.2 km/h 6.4 km/h 82% 0.25 mm
00:29 0.3 °C -2.2 °C 1023.6 hPa NE 3.2 km/h 6.4 km/h 83% 0.25 mm
00:39 0.3 °C -2.3 °C 1023.6 hPa NE 1.6 km/h 4.8 km/h 83% 0.25 mm
00:44 0.2 °C -2.3 °C 1023.2 hPa NE 1.6 km/h 4.8 km/h 83% 0.25 mm
00:49 0.2 °C -2.3 °C 1023.2 hPa NE 3.2 km/h 4.8 km/h 83% 0.25 mm
00:54 0.3 °C -2.4 °C 1023.2 hPa NE 4.8 km/h 6.4 km/h 82% 0.25 mm
00:59 0.3 °C -2.4 °C 1023.2 hPa Calm   6.4 km/h 82% 0.25 mm
01:04 0.3 °C -2.6 °C 1023.2 hPa NE 3.2 km/h 4.8 km/h 81% 0.25 mm
01:09 0.4 °C -2.3 °C 1023.2 hPa NE 3.2 km/h 4.8 km/h 82% 0.25 mm
01:14 0.4 °C -2.2 °C 1023.2 hPa Calm   3.2 km/h 83% 0.25 mm
01:19 0.4 °C -2.3 °C 1022.9 hPa NE 3.2 km/h 3.2 km/h 82% 0 mm
01:24 0.4 °C -2.3 °C 1022.6 hPa NE 1.6 km/h 4.8 km/h 82% 0 mm
01:29 0.4 °C -2.3 °C 1022.6 hPa NE 3.2 km/h 4.8 km/h 82% 0 mm
01:34 0.4 °C -2.3 °C 1022.6 hPa NE 3.2 km/h 6.4 km/h 82% 0 mm
01:39 0.4 °C -2.2 °C 1022.6 hPa NE 3.2 km/h 6.4 km/h 83% 0 mm
01:44 0.4 °C -2.1 °C 1022.6 hPa Calm   4.8 km/h 83% 0 mm
01:49 0.4 °C -2.1 °C 1022.6 hPa NE 3.2 km/h 3.2 km/h 83% 0 mm
01:54 0.4 °C -2.1 °C 1022.6 hPa NE 1.6 km/h 4.8 km/h 83% 0 mm
01:59 0.5 °C -2.1 °C 1022.6 hPa Calm   3.2 km/h 83% 0 mm
02:04 0.6 °C -2 °C 1022.6 hPa NE 1.6 km/h 3.2 km/h 83% 0 mm
02:09 0.6 °C -1.9 °C 1022.9 hPa Calm   1.6 km/h 83% 0 mm
02:14 0.6 °C -1.9 °C 1022.9 hPa Calm     83% 0 mm
02:19 0.7 °C -1.7 °C 1022.9 hPa Calm     84% 0 mm
02:24 0.7 °C -1.7 °C 1022.9 hPa Calm     84% 0 mm
02:29 0.7 °C -1.7 °C 1022.6 hPa Calm   3.2 km/h 84% 0 mm
02:34 0.7 °C -1.6 °C 1022.6 hPa NE 1.6 km/h 3.2 km/h 85% 0 mm
02:39 0.7 °C -1.6 °C 1022.6 hPa NE 1.6 km/h 3.2 km/h 85% 0 mm
02:44 0.7 °C -1.3 °C 1022.6 hPa NE 3.2 km/h 3.2 km/h 86% 0 mm
02:49 0.7 °C -1.3 °C 1022.2 hPa NE 1.6 km/h 4.8 km/h 86% 0.25 mm
02:54 0.7 °C -1.2 °C 1022.2 hPa NE 1.6 km/h 4.8 km/h 87% 0.25 mm
02:59 0.8 °C -1.2 °C 1022.2 hPa NE 1.6 km/h 8 km/h 87% 0.25 mm
03:04 0.8 °C -1.1 °C 1021.9 hPa NE 1.6 km/h 8 km/h 87% 0.25 mm
03:09 0.8 °C -0.9 °C 1021.9 hPa ENE 3.2 km/h 8 km/h 88% 0.25 mm
03:14 0.9 °C -0.9 °C 1021.9 hPa ENE 3.2 km/h 6.4 km/h 88% 0.25 mm
03:19 0.9 °C -0.9 °C 1021.6 hPa NNE 1.6 km/h 6.4 km/h 88% 0.25 mm
03:24 0.9 °C -0.9 °C 1021.6 hPa NE 1.6 km/h 4.8 km/h 88% 0.51 mm
03:29 0.9 °C -0.8 °C 1021.6 hPa NE 1.6 km/h 4.8 km/h 88% 0.51 mm
03:34 1.1 °C -0.7 °C 1021.6 hPa ENE 1.6 km/h 4.8 km/h 88% 0.51 mm
03:39 1.1 °C -0.7 °C 1021.6 hPa ENE 1.6 km/h 3.2 km/h 88% 0.51 mm
03:44 1.2 °C -0.8 °C 1021.6 hPa East 1.6 km/h 4.8 km/h 87% 0.51 mm
03:49 1.2 °C -0.7 °C 1021.2 hPa ENE 1.6 km/h 4.8 km/h 87% 0.25 mm
03:54 1.3 °C -0.5 °C 1021.2 hPa Calm   8 km/h 88% 0.25 mm
03:59 1.3 °C -0.6 °C 1020.9 hPa East 3.2 km/h 9.7 km/h 87% 0.25 mm
04:04 1.4 °C -0.6 °C 1020.9 hPa East 3.2 km/h 9.7 km/h 87% 0.51 mm
04:09 1.5 °C -0.4 °C 1020.9 hPa East 4.8 km/h 9.7 km/h 87% 0.51 mm
04:14 1.5 °C -0.4 °C 1020.9 hPa East 1.6 km/h 9.7 km/h 87% 0.51 mm
04:19 1.6 °C -0.3 °C 1020.9 hPa ENE 4.8 km/h 11.3 km/h 87% 0.51 mm
04:24 1.7 °C -0.3 °C 1020.9 hPa East 3.2 km/h 8 km/h 87% 0.25 mm
04:29 1.7 °C -0.2 °C 1020.5 hPa East 3.2 km/h 8 km/h 87% 0.25 mm
04:34 1.7 °C -0.2 °C 1020.5 hPa ENE 3.2 km/h 8 km/h 87% 0.25 mm
04:39 1.7 °C -0.3 °C 1020.5 hPa ENE 1.6 km/h 8 km/h 87% 0.25 mm
04:44 1.7 °C -0.1 °C 1020.5 hPa ENE 4.8 km/h 6.4 km/h 88% 0.25 mm
04:49 1.7 °C -0.1 °C 1020.5 hPa ENE 1.6 km/h 6.4 km/h 88% 0.25 mm
04:54 1.8 °C 0 °C 1020.5 hPa ENE 3.2 km/h 8 km/h 88% 0.25 mm
04:59 1.8 °C -0.2 °C 1020.2 hPa ENE 3.2 km/h 8 km/h 87% 0.25 mm
05:04 1.8 °C -0.1 °C 1020.2 hPa ENE 3.2 km/h 8 km/h 87% 0 mm
05:09 1.9 °C -0.1 °C 1020.2 hPa ENE 1.6 km/h 8 km/h 87% 0 mm
05:14 1.9 °C 0 °C 1020.2 hPa ENE 3.2 km/h 11.3 km/h 87% 0 mm
05:19 1.9 °C 0 °C 1019.9 hPa ESE 4.8 km/h 8 km/h 87% 0 mm
05:24 1.9 °C 0 °C 1019.9 hPa NE 3.2 km/h 11.3 km/h 87% 0 mm
05:29 1.9 °C 0 °C 1019.9 hPa NE 4.8 km/h 8 km/h 87% 0 mm
05:34 2 °C 0.1 °C 1019.9 hPa ENE 6.4 km/h 9.7 km/h 87% 0 mm
05:39 2.1 °C 0.1 °C 1019.9 hPa NE 4.8 km/h 8 km/h 87% 0 mm
05:44 2.1 °C 0.2 °C 1019.5 hPa NE 4.8 km/h 8 km/h 87% 0 mm
05:49 2.2 °C 0.3 °C 1019.5 hPa ENE 4.8 km/h 12.9 km/h 87% 0 mm
05:54 2.3 °C 0.3 °C 1019.2 hPa NE 3.2 km/h 11.3 km/h 87% 0 mm
05:59 2.3 °C 0.3 °C 1019.2 hPa ENE 4.8 km/h 11.3 km/h 87% 0 mm
06:04 2.3 °C 0.4 °C 1018.8 hPa NE 11.3 km/h 11.3 km/h 87% 0 mm
06:09 2.3 °C 0.4 °C 1018.8 hPa ENE 6.4 km/h 14.5 km/h 87% 0 mm
06:14 2.3 °C 0.4 °C 1018.8 hPa SE 4.8 km/h 9.7 km/h 87% 0.25 mm
06:19 2.3 °C 0.3 °C 1018.8 hPa ENE 3.2 km/h 11.3 km/h 87% 0.25 mm
06:24 2.3 °C 0.3 °C 1018.5 hPa ENE 4.8 km/h 12.9 km/h 87% 0.25 mm
06:29 2.3 °C 0.3 °C 1018.5 hPa East 4.8 km/h 14.5 km/h 87% 0.25 mm
06:34 2.3 °C 0.3 °C 1018.5 hPa East 6.4 km/h 14.5 km/h 87% 0.25 mm
06:39 2.3 °C 0.3 °C 1018.2 hPa East 6.4 km/h 14.5 km/h 87% 0.25 mm
06:44 2.3 °C 0.3 °C 1018.2 hPa NE 3.2 km/h 14.5 km/h 87% 0.25 mm
06:49 2.3 °C 0.3 °C 1018.2 hPa NE 4.8 km/h 12.9 km/h 87% 0.25 mm
06:54 2.3 °C 0.3 °C 1018.2 hPa ENE 8 km/h 12.9 km/h 87% 0.25 mm
06:59 2.3 °C 0.4 °C 1017.8 hPa ENE 6.4 km/h 14.5 km/h 87% 0.25 mm
07:04 2.3 °C 0.4 °C 1017.5 hPa ENE 6.4 km/h 16.1 km/h 87% 0.25 mm
07:09 2.3 °C 0.4 °C 1017.5 hPa ENE 6.4 km/h 16.1 km/h 87% 0.25 mm
07:14 2.3 °C 0.4 °C 1017.2 hPa ENE 6.4 km/h 14.5 km/h 87% 0.25 mm
07:19 2.3 °C 0.4 °C 1017.2 hPa ENE 3.2 km/h 12.9 km/h 87% 0.25 mm
07:24 2.3 °C 0.4 °C 1016.8 hPa NE 6.4 km/h 16.1 km/h 87% 0.25 mm
07:29 2.3 °C 0.4 °C 1016.8 hPa ENE 8 km/h 17.7 km/h 87% 0.25 mm
07:34 2.3 °C 0.6 °C 1016.5 hPa ENE 8 km/h 17.7 km/h 88% 0.25 mm
07:39 2.4 °C 0.6 °C 1016.5 hPa ENE 8 km/h 22.5 km/h 88% 0.25 mm
07:44 2.4 °C 0.7 °C 1016.5 hPa ENE 6.4 km/h 19.3 km/h 88% 0.25 mm
07:49 2.4 °C 0.7 °C 1016.5 hPa ENE 4.8 km/h 14.5 km/h 88% 0.25 mm
07:54 2.4 °C 0.7 °C 1016.5 hPa East 11.3 km/h 12.9 km/h 88% 0.25 mm
07:59 2.4 °C 0.7 °C 1016.5 hPa ENE 6.4 km/h 16.1 km/h 88% 0.51 mm
08:04 2.4 °C 0.7 °C 1016.5 hPa ENE 6.4 km/h 16.1 km/h 88% 0.51 mm
08:09 2.4 °C 0.7 °C 1016.5 hPa ENE 4.8 km/h 14.5 km/h 88% 0.51 mm
08:14 2.5 °C 0.7 °C 1016.1 hPa East 8 km/h 12.9 km/h 88% 0.25 mm
08:19 2.4 °C 0.7 °C 1016.1 hPa East 11.3 km/h 12.9 km/h 88% 0.25 mm
08:24 2.5 °C 0.7 °C 1016.1 hPa East 3.2 km/h 14.5 km/h 88% 0.25 mm
08:29 2.5 °C 0.9 °C 1015.8 hPa East 8 km/h 17.7 km/h 89% 0.25 mm
08:34 2.6 °C 0.9 °C 1015.8 hPa East 6.4 km/h 17.7 km/h 89% 0.25 mm
08:39 2.6 °C 0.9 °C 1015.8 hPa East 4.8 km/h 14.5 km/h 89% 0.25 mm
08:44 2.6 °C 1 °C 1015.8 hPa East 4.8 km/h 14.5 km/h 89% 0.25 mm
08:49 2.7 °C 1.1 °C 1015.8 hPa ENE 6.4 km/h 14.5 km/h 89% 0.25 mm
08:54 2.7 °C 1.1 °C 1015.5 hPa ENE 6.4 km/h 17.7 km/h 89% 0.25 mm
08:59 2.7 °C 1.2 °C 1015.5 hPa NE 6.4 km/h 11.3 km/h 90% 0 mm
09:04 2.7 °C 1.2 °C 1015.5 hPa ENE 4.8 km/h 12.9 km/h 90% 0.25 mm
09:09 2.7 °C 1.2 °C 1015.1 hPa ENE 6.4 km/h 16.1 km/h 90% 0.25 mm
09:14 2.8 °C 1.4 °C 1015.1 hPa East 6.4 km/h 16.1 km/h 91% 0.25 mm
09:19 2.8 °C 1.5 °C 1014.8 hPa ESE 6.4 km/h 11.3 km/h 91% 0.25 mm
09:24 2.9 °C 1.6 °C 1014.8 hPa East 8 km/h 12.9 km/h 91% 0.51 mm
09:29 3.1 °C 1.9 °C 1014.8 hPa East 4.8 km/h 8 km/h 92% 0.51 mm
09:34 3.2 °C 2 °C 1014.4 hPa East 3.2 km/h 11.3 km/h 92% 0.51 mm
09:39 3.2 °C 2.1 °C 1014.1 hPa ENE 4.8 km/h 12.9 km/h 92% 0.76 mm
09:44 3.3 °C 2.1 °C 1013.8 hPa ENE 4.8 km/h 12.9 km/h 92% 1.27 mm
09:49 3.3 °C 2.2 °C 1013.8 hPa Calm   14.5 km/h 92% 1.52 mm
09:54 3.4 °C 2.4 °C 1013.8 hPa ENE 4.8 km/h 11.3 km/h 93% 1.78 mm
09:59 3.6 °C 2.6 °C 1013.4 hPa East 9.7 km/h 12.9 km/h 93% 1.78 mm
10:04 3.6 °C 2.6 °C 1013.4 hPa ESE 11.3 km/h 11.3 km/h 93% 2.03 mm
10:09 3.7 °C 2.7 °C 1013.4 hPa East 4.8 km/h 11.3 km/h 93% 2.03 mm
10:14 3.8 °C 2.7 °C 1013.1 hPa East 4.8 km/h 11.3 km/h 93% 2.54 mm
10:19 3.9 °C 2.8 °C 1013.4 hPa East 4.8 km/h 11.3 km/h 93% 2.79 mm
10:24 3.9 °C 2.9 °C 1013.4 hPa East 3.2 km/h 11.3 km/h 93% 3.05 mm
10:29 4.1 °C 3 °C 1013.4 hPa ENE 3.2 km/h 6.4 km/h 93% 3.81 mm
10:34 4.1 °C 3.2 °C 1013.1 hPa ENE 4.8 km/h 9.7 km/h 94% 4.06 mm
10:39 4.1 °C 3.2 °C 1013.1 hPa ENE 4.8 km/h 8 km/h 94% 4.06 mm
10:44 4.1 °C 3.2 °C 1012.8 hPa ENE 3.2 km/h 9.7 km/h 94% 4.06 mm
10:49 4.2 °C 3.3 °C 1012.4 hPa East 8 km/h 12.9 km/h 94% 3.81 mm
10:54 4.2 °C 3.3 °C 1012.1 hPa ESE 11.3 km/h 16.1 km/h 94% 4.06 mm
10:59 4.3 °C 3.4 °C 1012.1 hPa ESE 8 km/h 12.9 km/h 94% 4.06 mm
11:04 4.6 °C 3.7 °C 1012.1 hPa ENE 3.2 km/h 12.9 km/h 94% 3.81 mm
11:09 4.8 °C 3.9 °C 1012.1 hPa East 8 km/h 9.7 km/h 94% 3.81 mm
11:14 4.9 °C 4.1 °C 1012.1 hPa ENE 4.8 km/h 9.7 km/h 94% 3.3 mm
11:19 5.1 °C 4.2 °C 1011.7 hPa ENE 3.2 km/h 9.7 km/h 94% 3.05 mm
11:24 5.2 °C 4.3 °C 1011.7 hPa ENE 3.2 km/h 9.7 km/h 94% 2.54 mm
11:29 5.3 °C 4.4 °C 1011.7 hPa ENE 3.2 km/h 9.7 km/h 94% 1.78 mm
11:34 5.4 °C 4.5 °C 1011.4 hPa ENE 4.8 km/h 9.7 km/h 94% 1.52 mm
11:39 5.4 °C 4.5 °C 1011.4 hPa NE 3.2 km/h 6.4 km/h 94% 1.27 mm
11:44 5.4 °C 4.5 °C 1011.4 hPa ENE 4.8 km/h 9.7 km/h 94% 0.76 mm
11:49 5.4 °C 4.6 °C 1011.4 hPa Calm   8 km/h 94% 0.76 mm
11:54 5.4 °C 4.5 °C 1011.4 hPa ENE 3.2 km/h 4.8 km/h 94% 0.51 mm
11:59 5.3 °C 4.2 °C 1011.4 hPa NE 1.6 km/h 6.4 km/h 93% 0.51 mm
12:04 5.2 °C 4.3 °C 1011.1 hPa ENE 4.8 km/h 6.4 km/h 94% 0.25 mm
12:09 5.2 °C 4.3 °C 1011.1 hPa ENE 3.2 km/h 6.4 km/h 94% 0.76 mm
12:14 5.2 °C 4.3 °C 1011.1 hPa ENE 3.2 km/h 6.4 km/h 94% 0.76 mm
12:19 5.2 °C 4.3 °C 1011.1 hPa ENE 1.6 km/h 4.8 km/h 94% 1.78 mm
12:24 5.3 °C 4.4 °C 1011.1 hPa ENE 3.2 km/h 6.4 km/h 94% 2.79 mm
12:29 5.3 °C 4.4 °C 1010.7 hPa NE 3.2 km/h 8 km/h 94% 3.3 mm
12:34 5.3 °C 4.4 °C 1010.7 hPa NE 3.2 km/h 8 km/h 94% 3.81 mm
12:39 5.3 °C 4.4 °C 1010.7 hPa ENE 1.6 km/h 6.4 km/h 94% 4.32 mm
12:44 5.4 °C 4.5 °C 1010.4 hPa East 1.6 km/h 8 km/h 94% 4.83 mm
12:49 5.4 °C 4.6 °C 1010.4 hPa ENE 1.6 km/h 9.7 km/h 94% 5.08 mm
12:54 5.6 °C 4.9 °C 1010 hPa ESE 3.2 km/h 4.8 km/h 95% 4.83 mm
12:59 5.8 °C 5.1 °C 1010 hPa ENE 4.8 km/h 8 km/h 95% 4.83 mm
13:04 5.9 °C 5.2 °C 1010 hPa ENE 3.2 km/h 8 km/h 95% 4.83 mm
13:09 5.9 °C 5.2 °C 1009.7 hPa NE 3.2 km/h 4.8 km/h 95% 4.32 mm
13:14 6 °C 5.3 °C 1009.7 hPa Calm   4.8 km/h 95% 4.57 mm
13:19 6.2 °C 5.4 °C 1009.7 hPa NE 3.2 km/h 4.8 km/h 95% 3.81 mm
13:24 6.3 °C 5.6 °C 1009.4 hPa ENE 1.6 km/h 4.8 km/h 95% 3.3 mm
13:29 6.4 °C 5.7 °C 1009.4 hPa ENE 1.6 km/h 4.8 km/h 95% 3.05 mm
13:34 6.5 °C 5.8 °C 1009 hPa Calm   3.2 km/h 95% 2.79 mm
13:39 6.6 °C 5.9 °C 1009 hPa Calm   3.2 km/h 95% 2.29 mm
13:44 6.8 °C 6.1 °C 1009 hPa Calm     95% 1.78 mm
13:49 6.9 °C 6.2 °C 1009 hPa Calm     95% 1.52 mm
13:54 7.1 °C 6.4 °C 1008.7 hPa Calm     95% 1.78 mm
13:59 7.2 °C 6.4 °C 1008.7 hPa Calm     95% 1.78 mm
14:04 7.2 °C 6.5 °C 1008.7 hPa Calm     95% 2.03 mm
14:09 7.3 °C 6.6 °C 1008.7 hPa Calm     95% 2.29 mm
14:14 7.3 °C 6.6 °C 1008.7 hPa Calm     95% 2.29 mm
14:19 7.3 °C 6.6 °C 1008.4 hPa Calm     95% 2.29 mm
14:24 7.4 °C 6.7 °C 1008.4 hPa Calm     95% 2.03 mm
14:29 7.5 °C 6.8 °C 1008.4 hPa Calm     95% 1.78 mm
14:34 7.5 °C 6.8 °C 1008.4 hPa Calm     95% 1.78 mm
14:39 7.4 °C 6.7 °C 1008 hPa Calm     95% 1.78 mm
14:44 7.4 °C 6.7 °C 1008 hPa Calm     95% 1.78 mm
14:49 7.4 °C 6.7 °C 1008 hPa NE 4.8 km/h 9.7 km/h 95% 2.03 mm
14:54 7.5 °C 6.8 °C 1008 hPa ENE 3.2 km/h 9.7 km/h 95% 2.03 mm
14:59 7.5 °C 6.8 °C 1008 hPa NE 3.2 km/h 4.8 km/h 95% 2.03 mm
15:04 7.6 °C 6.8 °C 1008.4 hPa NE 1.6 km/h 4.8 km/h 95% 1.78 mm
15:09 7.4 °C 6.7 °C 1008.4 hPa NE 3.2 km/h 3.2 km/h 95% 1.52 mm
15:14 7.1 °C 6.4 °C 1008.4 hPa NE 3.2 km/h 3.2 km/h 95% 1.27 mm
15:19 6.9 °C 6.2 °C 1008.4 hPa NE 1.6 km/h 4.8 km/h 95% 1.02 mm
15:24 6.8 °C 6.1 °C 1008.4 hPa NE 1.6 km/h 4.8 km/h 95% 0.76 mm
15:29 6.4 °C 5.7 °C 1008.4 hPa Calm   3.2 km/h 95% 0.76 mm
15:34 6.2 °C 5.4 °C 1008.4 hPa North 1.6 km/h 6.4 km/h 95% 0.51 mm
15:39 5.9 °C 5 °C 1008.4 hPa North 3.2 km/h 11.3 km/h 94% 0.51 mm
15:44 5.7 °C 4.9 °C 1008.4 hPa NNW 4.8 km/h 16.1 km/h 95% 0.51 mm
15:49 5.7 °C 4.9 °C 1008.4 hPa North 1.6 km/h 4.8 km/h 95% 0.25 mm
15:54 5.7 °C 4.9 °C 1008.4 hPa Calm   3.2 km/h 95% 0 mm
15:59 5.7 °C 5 °C 1008.4 hPa Calm   3.2 km/h 95% 0 mm
16:04 5.7 °C 5 °C 1008.4 hPa Calm     95% 0 mm
16:09 5.7 °C 4.9 °C 1008.4 hPa Calm     95% 0 mm
16:14 5.6 °C 4.9 °C 1008.4 hPa Calm     95% 0 mm
16:19 5.6 °C 4.9 °C 1008.4 hPa Calm   3.2 km/h 95% 0 mm
16:24 5.6 °C 4.9 °C 1008.4 hPa Calm     95% 0 mm
16:29 5.6 °C 4.8 °C 1008.4 hPa Calm     95% 0 mm
16:34 5.4 °C 4.7 °C 1008.4 hPa Calm     95% 0 mm
16:39 5.3 °C 4.6 °C 1008.7 hPa Calm     95% 0 mm
16:44 5.2 °C 4.5 °C 1008.7 hPa Calm     95% 0 mm
16:49 5.2 °C 4.5 °C 1008.7 hPa Calm     95% 0 mm
16:54 5.2 °C 4.4 °C 1008.7 hPa Calm     95% 0 mm
16:59 5.2 °C 4.4 °C 1008.7 hPa Calm     95% 0 mm
17:04 5.2 °C 4.4 °C 1008.7 hPa Calm     95% 0.25 mm
17:09 5.2 °C 4.5 °C 1008.7 hPa Calm     95% 0.25 mm
17:14 5.3 °C 4.6 °C 1009 hPa Calm     95% 0.25 mm
17:19 5.3 °C 4.6 °C 1009 hPa Calm     95% 0.25 mm
17:24 5.6 °C 4.8 °C 1009 hPa SW 1.6 km/h 4.8 km/h 95% 0.25 mm
17:29 6.2 °C 5.6 °C 1009 hPa SSW 3.2 km/h 6.4 km/h 96% 0.25 mm
17:34 6.7 °C 6.1 °C 1009 hPa SW 3.2 km/h 9.7 km/h 96% 0.25 mm
17:39 7.1 °C 6.5 °C 1009 hPa South 8 km/h 9.7 km/h 96% 0.25 mm
17:44 7.2 °C 6.6 °C 1009 hPa SW 6.4 km/h 9.7 km/h 96% 0.25 mm
17:49 7.2 °C 6.6 °C 1009 hPa WSW 8 km/h 12.9 km/h 96% 0.25 mm
17:54 7.2 °C 6.6 °C 1009 hPa SW 12.9 km/h 12.9 km/h 96% 0.25 mm
17:59 7.1 °C 6.5 °C 1009 hPa SW 8 km/h 12.9 km/h 96% 0.25 mm
18:04 7.1 °C 6.5 °C 1009 hPa SW 6.4 km/h 12.9 km/h 96% 0 mm
18:09 7.1 °C 6.4 °C 1009 hPa SW 6.4 km/h 11.3 km/h 96% 0 mm
18:14 7.1 °C 6.4 °C 1009 hPa SW 6.4 km/h 14.5 km/h 96% 0 mm
18:19 7.1 °C 6.4 °C 1009 hPa SW 8 km/h 14.5 km/h 96% 0 mm
18:24 7.1 °C 6.4 °C 1009 hPa WSW 6.4 km/h 14.5 km/h 96% 0 mm
18:29 7.2 °C 6.6 °C 1009 hPa SW 8 km/h 16.1 km/h 96% 0 mm
18:34 7.2 °C 6.6 °C 1009.4 hPa SW 8 km/h 17.7 km/h 96% 0 mm
18:39 7.3 °C 6.7 °C 1009.4 hPa SW 6.4 km/h 17.7 km/h 96% 0 mm
18:44 7.2 °C 6.6 °C 1009.4 hPa SSW 11.3 km/h 22.5 km/h 96% 0 mm
18:49 7.3 °C 6.7 °C 1009.4 hPa SSW 8 km/h 24.1 km/h 96% 0 mm
18:54 7.2 °C 6.6 °C 1009.4 hPa SW 8 km/h 16.1 km/h 96% 0 mm
18:59 7.1 °C 6.4 °C 1009.4 hPa SSW 6.4 km/h 16.1 km/h 95% 0 mm
19:04 7.1 °C 6.4 °C 1009.4 hPa SW 8 km/h 17.7 km/h 96% 0 mm
19:09 6.9 °C 6.3 °C 1009.4 hPa SW 9.7 km/h 24.1 km/h 96% 0 mm
19:14 6.8 °C 6.1 °C 1009.4 hPa SW 12.9 km/h 27.4 km/h 95% 0 mm
19:19 6.8 °C 6.1 °C 1009.7 hPa SW 11.3 km/h 27.4 km/h 95% 0 mm
19:24 6.8 °C 6.1 °C 1009.4 hPa SW 11.3 km/h 27.4 km/h 95% 0 mm
19:29 6.8 °C 6.1 °C 1009.7 hPa SW 12.9 km/h 27.4 km/h 95% 0 mm
19:34 6.7 °C 6.1 °C 1009.7 hPa SW 9.7 km/h 19.3 km/h 96% 0 mm
19:39 6.6 °C 6 °C 1009.7 hPa SSW 8 km/h 25.7 km/h 96% 0 mm
19:44 6.6 °C 5.9 °C 1009.7 hPa West 6.4 km/h 22.5 km/h 96% 0 mm
19:49 6.5 °C 5.8 °C 1009.7 hPa SW 12.9 km/h 20.9 km/h 95% 0 mm
19:54 6.4 °C 5.7 °C 1009.7 hPa South 12.9 km/h 20.9 km/h 95% 0 mm
19:59 6.3 °C 5.6 °C 1009.7 hPa WSW 12.9 km/h 17.7 km/h 95% 0 mm
20:04 6.2 °C 5.4 °C 1009.7 hPa SW 16.1 km/h 27.4 km/h 95% 0 mm
20:09 6.1 °C 5.4 °C 1009.7 hPa SW 12.9 km/h 27.4 km/h 95% 0 mm
20:14 6 °C 5.3 °C 1009.7 hPa SW 12.9 km/h 27.4 km/h 95% 0 mm
20:19 6 °C 5.3 °C 1009.7 hPa SW 14.5 km/h 30.6 km/h 95% 0 mm
20:24 5.9 °C 5.3 °C 1009.7 hPa SW 12.9 km/h 30.6 km/h 96% 0 mm
20:29 5.9 °C 5.3 °C 1009.7 hPa WSW 20.9 km/h 25.7 km/h 96% 0 mm
20:34 5.9 °C 5.3 °C 1009.7 hPa SW 8 km/h 32.2 km/h 96% 0 mm
20:39 5.8 °C 5.2 °C 1009.7 hPa SW 12.9 km/h 32.2 km/h 96% 0 mm
20:44 5.8 °C 5.1 °C 1009.7 hPa SW 12.9 km/h 22.5 km/h 95% 0 mm
20:49 5.7 °C 4.9 °C 1009.7 hPa WSW 12.9 km/h 24.1 km/h 95% 0 mm
20:54 5.6 °C 4.8 °C 1009.7 hPa SW 11.3 km/h 24.1 km/h 95% 0 mm
20:59 5.4 °C 4.7 °C 1009.7 hPa West 12.9 km/h 20.9 km/h 95% 0 mm
21:04 5.3 °C 4.6 °C 1009.7 hPa SW 12.9 km/h 19.3 km/h 95% 0 mm
21:09 5.2 °C 4.5 °C 1009.7 hPa SW 17.7 km/h 19.3 km/h 95% 0 mm
21:14 5.1 °C 4.4 °C 1009.7 hPa SW 11.3 km/h 24.1 km/h 95% 0 mm
21:19 4.9 °C 4.2 °C 1009.7 hPa SW 11.3 km/h 24.1 km/h 95% 0 mm
21:24 4.8 °C 4.1 °C 1009.7 hPa WSW 11.3 km/h 17.7 km/h 95% 0 mm
21:29 4.8 °C 4.1 °C 1009.7 hPa WSW 11.3 km/h 22.5 km/h 95% 0.25 mm
21:34 4.7 °C 3.9 °C 1009.7 hPa SW 11.3 km/h 20.9 km/h 95% 0.25 mm
21:39 4.6 °C 3.9 °C 1009.7 hPa SW 9.7 km/h 20.9 km/h 95% 0.25 mm
21:44 4.6 °C 3.8 °C 1009.7 hPa SW 9.7 km/h 17.7 km/h 95% 0.25 mm
21:49 4.6 °C 3.8 °C 1009.7 hPa SW 9.7 km/h 22.5 km/h 95% 0.25 mm
21:54 4.5 °C 3.8 °C 1009.7 hPa WSW 11.3 km/h 22.5 km/h 95% 0.25 mm
21:59 4.4 °C 3.7 °C 1009.7 hPa WSW 11.3 km/h 22.5 km/h 95% 0.25 mm
22:04 4.3 °C 3.6 °C 1009.7 hPa WSW 11.3 km/h 20.9 km/h 95% 0.25 mm
22:09 4.3 °C 3.6 °C 1009.7 hPa WSW 6.4 km/h 22.5 km/h 95% 0.25 mm
22:14 4.2 °C 3.4 °C 1009.7 hPa SW 11.3 km/h 22.5 km/h 95% 0.25 mm
22:19 4.1 °C 3.3 °C 1009.7 hPa SW 11.3 km/h 25.7 km/h 95% 0.25 mm
22:24 4 °C 3.3 °C 1010 hPa WSW 11.3 km/h 25.7 km/h 95% 0.25 mm
22:29 3.9 °C 3.2 °C 1010 hPa West 4.8 km/h 22.5 km/h 95% 0 mm
22:34 3.8 °C 3.1 °C 1010 hPa WSW 8 km/h 22.5 km/h 95% 0 mm
22:39 3.8 °C 3.1 °C 1010 hPa SW 14.5 km/h 20.9 km/h 95% 0 mm
22:44 3.7 °C 3 °C 1010 hPa WSW 6.4 km/h 20.9 km/h 95% 0 mm
22:49 3.7 °C 2.9 °C 1010 hPa WSW 11.3 km/h 20.9 km/h 95% 0 mm
22:54 3.6 °C 2.8 °C 1010 hPa WSW 11.3 km/h 20.9 km/h 95% 0 mm
22:59 3.6 °C 2.8 °C 1010 hPa WSW 9.7 km/h 20.9 km/h 95% 0 mm
23:04 3.5 °C 2.8 °C 1010 hPa WSW 9.7 km/h 20.9 km/h 95% 0 mm
23:09 3.5 °C 2.8 °C 1010 hPa SW 9.7 km/h 27.4 km/h 95% 0 mm
23:14 3.5 °C 2.8 °C 1010 hPa SW 6.4 km/h 19.3 km/h 95% 0 mm
23:19 3.4 °C 2.7 °C 1010 hPa WSW 9.7 km/h 24.1 km/h 95% 0 mm
23:24 3.4 °C 2.7 °C 1010 hPa WSW 9.7 km/h 24.1 km/h 95% 0 mm
23:29 3.4 °C 2.7 °C 1010 hPa WSW 9.7 km/h 17.7 km/h 95% 0.25 mm
23:34 3.4 °C 2.7 °C 1010 hPa WSW 9.7 km/h 17.7 km/h 95% 0.25 mm
23:39 3.4 °C 2.7 °C 1010 hPa WSW 17.7 km/h 20.9 km/h 95% 0.25 mm
23:44 3.4 °C 2.7 °C 1010 hPa SW 8 km/h 17.7 km/h 95% 0.25 mm
23:49 3.4 °C 2.7 °C 1010 hPa SW 9.7 km/h 20.9 km/h 95% 0.25 mm
23:54 3.4 °C 2.7 °C 1010 hPa SSW 8 km/h 22.5 km/h 95% 0.25 mm
23:59 3.3 °C 2.8 °C 1010 hPa South 8 km/h 17.7 km/h 96% 0.25 mm
Buffalo, New York, USA
Compliments of Weather Underground - 2.5 mb